Estación de Morza

Ultimos registro cada 15 minutos 96
Estación Fecha / Hora Temperatura Humedad Lluvia Velocidad Dirección Radiación Presion
96 Morza 07-05-2026 23:45 8,6 90 0 0,4 158 0 1022,6
95 Morza 07-05-2026 23:30 8,7 89 0 0 206 0 1023,1
94 Morza 07-05-2026 23:15 8,9 89 0 0 206 0 1023,1
93 Morza 07-05-2026 23:00 9,1 89 0 0 206 0 1023,4
92 Morza 07-05-2026 22:45 9,1 88 0 0 103 0 1023,5
91 Morza 07-05-2026 22:30 9,2 88 0 0 289 0 1023,4
90 Morza 07-05-2026 22:15 9,3 89 0 0 292 0 1023,3
89 Morza 07-05-2026 22:00 9,4 88 0 0 298 0 1023,5
88 Morza 07-05-2026 21:45 9,6 88 0 0 298 0 1023,3
87 Morza 07-05-2026 21:30 9,7 88 0 0 298 0 1023,6
86 Morza 07-05-2026 21:15 9,7 87 0 0 298 0 1023,2
85 Morza 07-05-2026 21:00 9,9 87 0 0 298 0 1023,5
84 Morza 07-05-2026 20:45 10,1 86 0 0,9 352 0 1023,7
83 Morza 07-05-2026 20:30 10,2 85 0 0 9 0 1023,9
82 Morza 07-05-2026 20:15 10,2 84 0 0 1 0 1024,2
81 Morza 07-05-2026 20:00 10,4 83 0 0 1 0 1024,3
80 Morza 07-05-2026 19:45 10,7 81 0 0 1 0 1023,8
79 Morza 07-05-2026 19:30 10,8 80 0 0 1 0 1023,4
78 Morza 07-05-2026 19:15 11 81 0 0 10 0 1023,8
77 Morza 07-05-2026 19:00 11,2 80 0 0,4 10 0 1023,4
76 Morza 07-05-2026 18:45 11,4 78 0 0 291 0 1023,2
75 Morza 07-05-2026 18:30 11,6 77 0 0 285 0 1023,2
74 Morza 07-05-2026 18:15 11,7 77 0 0,4 63 0 1023,9
73 Morza 07-05-2026 18:00 12 77 0 0 107 0 1023,8
72 Morza 07-05-2026 17:45 12,3 76 0 0 109 5 1023,6
71 Morza 07-05-2026 17:30 12,7 75 0 0 261 12 1023,5
70 Morza 07-05-2026 17:15 13 74 0 0,4 280 28 1023,3
69 Morza 07-05-2026 17:00 13,4 74 0 0,4 260 28 1023,8
68 Morza 07-05-2026 16:45 13,7 72 0 0 28 46 1023,6
67 Morza 07-05-2026 16:30 14,1 72 0 0,4 68 76 1023,6
66 Morza 07-05-2026 16:15 14,6 69 0 0,4 34 118 1023,6
65 Morza 07-05-2026 16:00 15,1 71 0 0,9 277 116 1023,6
64 Morza 07-05-2026 15:45 15,6 69 0 0,4 340 172 1023,4
63 Morza 07-05-2026 15:30 16,2 66 0 0,4 255 381 1023,3
62 Morza 07-05-2026 15:15 15,9 70 0 0 244 348 1023,3
61 Morza 07-05-2026 15:00 15,6 72 0 0,4 311 362 1023,4
60 Morza 07-05-2026 14:45 14,9 74 0 0 131 425 1023,6
59 Morza 07-05-2026 14:30 14,8 73 0 2,2 281 424 1024
58 Morza 07-05-2026 14:15 14,4 76 0 0,9 288 452 1024
57 Morza 07-05-2026 14:00 13,7 76 0 0,4 321 445 1023,8
56 Morza 07-05-2026 13:45 13,8 77 0 2,2 268 497 1024,1
55 Morza 07-05-2026 13:30 13,1 81 0 0,4 329 355 1024,1
54 Morza 07-05-2026 13:15 12,2 83 0 0,9 89 610 1024,2
53 Morza 07-05-2026 13:00 11,4 84 0 0 113 279 1024,5
52 Morza 07-05-2026 12:45 11,4 85 0 0 322 234 1024,9
51 Morza 07-05-2026 12:30 11,1 88 0 0,4 203 272 1025,2
50 Morza 07-05-2026 12:15 10,7 88 0 0,9 302 209 1025,4
49 Morza 07-05-2026 12:00 10,7 89 0 0,4 263 216 1025,4
48 Morza 07-05-2026 11:45 10,4 89 0 0,4 258 127 1025,5
47 Morza 07-05-2026 11:30 10,2 89 0 0 297 139 1025,8
46 Morza 07-05-2026 11:15 10 92 0 0,4 351 116 1025,8
45 Morza 07-05-2026 11:00 9,7 92 0 0 242 83 1025,6
44 Morza 07-05-2026 10:45 9,6 93 0 0,4 292 104 1025,3
43 Morza 07-05-2026 10:30 9,6 93 0 0 262 76 1025,1
42 Morza 07-05-2026 10:15 9,7 92 0 0 335 74 1025,4
41 Morza 07-05-2026 10:00 9,6 94 0 0,9 293 88 1025,1
40 Morza 07-05-2026 09:45 9,3 95 0 0,4 253 79 1025,2
39 Morza 07-05-2026 09:30 9,1 96 0 0,4 261 70 1024,9
38 Morza 07-05-2026 09:15 9,1 96 0 0 294 69 1024,9
37 Morza 07-05-2026 09:00 8,9 96 0 0,4 302 54 1024,8
36 Morza 07-05-2026 08:45 8,7 96 0 0,4 274 37 1024,6
35 Morza 07-05-2026 08:30 8,7 96 0 0,4 275 28 1024,7
34 Morza 07-05-2026 08:15 8,5 96 0 0,9 293 28 1024,5
33 Morza 07-05-2026 08:00 8,1 96 0 0 351 11 1024,2
32 Morza 07-05-2026 07:45 7,7 95 0 0 351 5 1023,7
31 Morza 07-05-2026 07:30 7,8 94 0 0 316 0 1023,5
30 Morza 07-05-2026 07:15 7,9 93 0 0 316 0 1023,6
29 Morza 07-05-2026 07:00 8,4 94 0 0 316 0 1023,4
28 Morza 07-05-2026 06:45 8,7 94 0 0 316 0 1023,7
27 Morza 07-05-2026 06:30 9,1 94 0 0 267 0 1023,6
26 Morza 07-05-2026 06:15 9,1 94 0 0 133 0 1023,7
25 Morza 07-05-2026 06:00 9,1 94 0 0 172 0 1023,2
24 Morza 07-05-2026 05:45 9,1 94 0 0 126 0 1023,2
23 Morza 07-05-2026 05:30 9,1 94 0 0 227 0 1023,1
22 Morza 07-05-2026 05:15 8,9 94 0 0,4 219 0 1022,7
21 Morza 07-05-2026 05:00 8,9 94 0 0 67 0 1022,6
20 Morza 07-05-2026 04:45 9,2 94 0 0,4 300 0 1022,3
19 Morza 07-05-2026 04:30 9,2 94 0 0 135 0 1022,3
18 Morza 07-05-2026 04:15 9,3 94 0 0 303 0 1021,9
17 Morza 07-05-2026 04:00 9,3 94 0 0 292 0 1022
16 Morza 07-05-2026 03:45 9,4 94 0 0 292 0 1022,1
15 Morza 07-05-2026 03:30 9,4 94 0 0,4 298 0 1022,1
14 Morza 07-05-2026 03:15 9,5 94 0 0 24 0 1022,1
13 Morza 07-05-2026 03:00 9,6 94 0 0,4 253 0 1022,1
12 Morza 07-05-2026 02:45 9,7 94 0 0,4 258 0 1022
11 Morza 07-05-2026 02:30 9,7 94 0 0 280 0 1022
10 Morza 07-05-2026 02:15 9,7 94 0 0 280 0 1021,9
9 Morza 07-05-2026 02:00 9,8 94 0 0 266 0 1021,6
8 Morza 07-05-2026 01:45 9,9 94 0 0,4 280 0 1021,6
7 Morza 07-05-2026 01:30 9,9 94 0 0 221 0 1021,3
6 Morza 07-05-2026 01:15 10 94 0 0 295 0 1021,2
5 Morza 07-05-2026 01:00 10,1 94 0 0 266 0 1021,2
4 Morza 07-05-2026 00:45 10,1 94 0 0 261 0 1021,2
3 Morza 07-05-2026 00:30 10,2 94 0 0 245 0 1021,4
2 Morza 07-05-2026 00:15 10,3 95 0 0 6 0 1021,1
1 Morza 07-05-2026 00:00 10,5 95 0 0,4 286 0 1021